Change the Weather History Date:

Saturday, September 10, 2011

  Actual Average Record
Temperature  
Mean Temperature 68 °F 69 °F  
Max Temperature 75 °F 78 °F 96 °F (2013)
Min Temperature 60 °F 60 °F 44 °F (1943)
Degree Days  
Heating Degree Days 0 1  
Month to date heating degree days 10  
Since 1 July heating degree days 15  
Cooling Degree Days 2 5  
Month to date cooling degree days 62  
Year to date cooling degree days 972  
Growing Degree Days 18 (Base 50)    
Moisture  
Dew Point 60 °F    
Average Humidity 82    
Maximum Humidity 100    
Minimum Humidity 55    
Precipitation  
Precipitation 0.01 in 0.11 in 1.61 in (2014)
Month to date precipitation 1.15  
Year to date precipitation 27.70  
Sea Level Pressure  
Sea Level Pressure 30.00 in    
Wind  
Wind Speed 2 mph (SE)    
Max Wind Speed 7 mph    
Max Gust Speed -    
Visibility 7 miles    
Events Fog    
T = Trace of Precipitation, MM = Missing Value Source: NWS Daily Summary

Daily Weather History Graph

Daily Weather History Graph

Search for Another Location

Airport or City:

Trip Planner

Search our weather history database for the weather conditions in past years. The results will help you decide how hot, cold, wet, or windy it might be!

Date:

Astronomy

Sep. 10, 2011 Rise Set
Actual Time 6:25 AM CDT 7:09 PM CDT
Civil Twilight 5:57 AM CDT 7:37 PM CDT
Nautical Twilight 5:24 AM CDT 8:10 PM CDT
Astronomical Twilight 4:49 AM CDT 8:45 PM CDT
Moon 6:04 PM CDT (9/10) 4:44 AM CDT (9/10)
Length of Visible Light 13h 39m
Length of Day
12h 43m
Waxing Gibbous, 97% of the Moon is Illuminated
Sep 10
Waxing Gibbous
Sep 12
Full
Sep 20
Last Quarter
Sep 27
New
Oct 3
First Quarter

Hourly Weather History & Observations

Time (CDT) Temp. Dew Point Humidity Pressure Visibility Wind Dir Wind Speed Gust Speed Precip Events Conditions
12:05 AM 66.2 °F 62.6 °F 88% 29.97 in 10.0 mi NNE 4.6 mph - N/A   Overcast
12:42 AM 64.4 °F 62.6 °F 94% 29.97 in 9.0 mi Calm Calm - N/A   Scattered Clouds
12:51 AM 64.0 °F 61.0 °F 90% 29.96 in 10.0 mi Calm Calm - N/A   Mostly Cloudy
1:24 AM 62.6 °F 60.8 °F 94% 29.97 in 10.0 mi Calm Calm - N/A   Partly Cloudy
1:51 AM 62.1 °F 61.0 °F 96% 29.96 in 10.0 mi NNW 3.5 mph - N/A   Partly Cloudy
2:51 AM 62.1 °F 60.1 °F 93% 29.95 in 10.0 mi Calm Calm - N/A   Partly Cloudy
3:51 AM 60.8 °F 57.2 °F 88% 29.97 in 10.0 mi Calm Calm - N/A   Partly Cloudy
4:51 AM 60.1 °F 59.0 °F 96% 29.96 in 3.0 mi Calm Calm - N/A   Partly Cloudy
5:51 AM 61.0 °F 60.1 °F 97% 29.97 in 4.0 mi South 4.6 mph - N/A   Scattered Clouds
6:51 AM 60.1 °F 57.9 °F 93% 29.99 in 5.0 mi NNW 3.5 mph - N/A   Mostly Cloudy
7:29 AM 62.6 °F 60.8 °F 94% 30.02 in 0.5 mi Calm Calm - N/A Fog Fog
7:51 AM 62.1 °F 61.0 °F 96% 30.01 in 0.2 mi Calm Calm - N/A Fog Fog
7:58 AM 60.8 °F 60.8 °F 100% 30.03 in 0.2 mi Calm Calm - N/A Fog Fog
8:13 AM 62.6 °F 60.8 °F 94% 30.03 in 0.5 mi Calm Calm - 0.01 in Fog Fog
8:19 AM 62.6 °F 60.8 °F 94% 30.03 in 0.8 mi Calm Calm - 0.01 in   Mostly Cloudy
8:51 AM 62.1 °F 61.0 °F 96% 30.02 in 1.0 mi Calm Calm - 0.01 in   Mostly Cloudy
9:21 AM 62.6 °F 62.6 °F 100% 30.03 in 2.0 mi Calm Calm - N/A   Mostly Cloudy
9:42 AM 62.6 °F 62.6 °F 100% 30.04 in 3.0 mi Calm Calm - N/A   Mostly Cloudy
9:51 AM 64.0 °F 62.1 °F 93% 30.03 in 4.0 mi Calm Calm - N/A   Mostly Cloudy
10:51 AM 70.0 °F 60.1 °F 71% 30.02 in 10.0 mi South 3.5 mph - N/A   Mostly Cloudy
11:51 AM 72.0 °F 57.9 °F 61% 30.02 in 10.0 mi SE 5.8 mph - N/A   Mostly Cloudy
12:51 PM 73.0 °F 57.0 °F 57% 30.01 in 10.0 mi Variable 3.5 mph - N/A   Mostly Cloudy
1:51 PM 73.9 °F 57.0 °F 55% 30.01 in 10.0 mi SE 4.6 mph - N/A   Mostly Cloudy
2:51 PM 73.9 °F 57.9 °F 57% 30.00 in 10.0 mi ESE 6.9 mph - N/A   Mostly Cloudy
3:51 PM 73.9 °F 59.0 °F 59% 30.00 in 10.0 mi Variable 4.6 mph - N/A   Mostly Cloudy
4:51 PM 75.0 °F 59.0 °F 57% 29.99 in 10.0 mi ESE 4.6 mph - N/A   Mostly Cloudy
5:51 PM 73.9 °F 59.0 °F 59% 29.99 in 10.0 mi Calm Calm - N/A   Mostly Cloudy
6:51 PM 72.0 °F 59.0 °F 64% 29.99 in 10.0 mi SW 3.5 mph - N/A   Scattered Clouds
7:51 PM 71.1 °F 59.0 °F 66% 29.99 in 10.0 mi Calm Calm - N/A   Scattered Clouds
8:51 PM 68.0 °F 60.1 °F 76% 30.00 in 10.0 mi Calm Calm - N/A   Scattered Clouds
9:51 PM 69.1 °F 61.0 °F 75% 30.00 in 10.0 mi Calm Calm - N/A   Partly Cloudy
10:51 PM 64.9 °F 60.1 °F 84% 30.01 in 7.0 mi Calm Calm - N/A   Scattered Clouds
11:51 PM 66.9 °F 62.1 °F 84% 30.01 in 7.0 mi Calm Calm - N/A   Partly Cloudy